Tracking 29034 objects as of 25-Jun-2024
HD Live streaming from Space Station
objects crossing your sky now

ICEYE-X17

Track ICEYE-X17 now!
10-day predictions


NORAD ID: 52762
Int'l Code: 2022-057AG
Perigee: 485.4 km
Apogee: 507.5 km
Inclination: 97.6 °
Period: 94.4 minutes
Semi major axis: 6867 km
RCS: Unknown
Launch date: May 25, 2022
Source: United States (US)
Launch site: AIR FORCE EASTERN TEST RANGE (AFETR)
Your satellite tracking list
Your tracking list is empty




NASA's NSSDC Master Catalog

Two Line Element Set (TLE):
1 52762U 22057AG  24176.91577122  .00016815  00000-0  66365-3 0  9992
2 52762  97.5705 301.4423 0016109 102.3419 257.9623 15.25492184115610
Source of the keplerian elements: AFSPC